BREEZE-M DEB, 34236

Orbit data source: Space-Track

BREEZE-M DEB, 34236 is space debris in HEO originally from a launch on Tue, 28 Feb 2006 UTC launched from the Tyuratam Missile And Space Complex (TTMTR). Debris objects in space refer to the collection of defunct objects orbiting the Earth. Examples of debris include non-operational satellites, rocket bodies, and fragments generated from explosions, collisions, or faulty payload assembly.

Loading next visibility...
Identifier
34236, 2006-006BB
Orbit
HEO
Country
Flag of CISCIS
Related business
Manufacturer
Khrunichev
Mission
Spacecraft
Bus & Motor
Unknown
Mass
Unknown
Launch date (UTC)
2006-02-28 (20 years ago)
Launch vehicle
Unknown
Launch site
Tyuratam Missile And Space Complex (TTMTR)
Object type
Payload
Rocket body
Debris
Shape & HBR
Unknown shape, 0.1 m
Radar Cross Section
Medium (>0.1 m² and <1 m²)

Expand to show TLE details & history
Last TLE update: 4 months ago

TLE from 4 months ago
0 BREEZE-M DEB
1 34236U 06006BB  26048.43884313  .00004582  00000-0  19347-2 0  9999
2 34236  51.6423 218.9090 4894716 247.2278  54.9809  5.70502861 40183
Epoch: 2026-02-17T10:31Z
TLE epoch observation values (Epoch: 2026-02-17T10:31:56.046Z)
Latitude
-0.00002°
Longitude
-86.50007°
Altitude
6,040.412 km
Speed
5.837 km/s
True Right ascension
14h 35m 36s
True Declination
0° 00' 00"
Sunlit
Object was in daylight at epoch
Visualization orbit readout
Latitude
Unknown
Longitude
Unknown
Altitude
Unknown
Speed
Unknown
Apparent Right ascension
Unknown
Apparent Declination
Unknown
Sunlit
N/A
Visualization observer readout
Local Sidereal Time
19:59:03
Azimuth
Unknown
Elevation
Unknown
Doppler factor
Unknown
Orbital elements
Apogee altitude
13,328.321 km
Perigee altitude
376.411 km
Semi-major axis
13,230.503 km
Eccentricity
0.48947
Inclination
51.6423°
RAAN
218.909°
Arg. of periapsis
247.2278°
True anomaly
112.83058°
Mean anomaly
54.9809°
Eccentric anomaly
82.8047°
Mean motion
1.42619 °/min
Orbital period
252.42 mins
BSTAR
0.0019347
Loading maneuver chart data...
Computing Atmospheric mass density...
Loading historical data...
Loading historical data...
Loading historical data...
Loading historical data...
Loading historical data...
Loading historical data...
Loading historical data...

Documentation

Showing up to 5 results
|